TimePDT,TemperatureF,Dew PointF,Humidity,Sea Level PressureIn,VisibilityMPH,Wind Direction,Wind SpeedMPH,Gust SpeedMPH,PrecipitationIn,Events,Conditions,WindDirDegrees,DateUTC
12:56 AM,84.0,64.0,51,29.92,10.0,North,-9999.0,-,N/A,,Unknown,0,2013-07-31 07:56:00
1:56 AM,82.9,64.9,54,29.91,10.0,North,-9999.0,-,N/A,,Unknown,0,2013-07-31 08:56:00
2:56 AM,81.0,62.1,52,29.90,10.0,North,-9999.0,-,N/A,,Unknown,0,2013-07-31 09:56:00
3:56 AM,80.1,61.0,52,29.90,10.0,North,-9999.0,-,N/A,,Unknown,0,2013-07-31 10:56:00
4:56 AM,79.0,62.1,56,29.91,10.0,North,-9999.0,-,N/A,,Unknown,0,2013-07-31 11:56:00
5:56 AM,79.0,61.0,54,29.94,10.0,Calm,Calm,-,N/A,,Scattered Clouds,0,2013-07-31 12:56:00
6:56 AM,80.1,64.0,58,29.95,10.0,Variable,3.5,-,N/A,,Scattered Clouds,0,2013-07-31 13:56:00
7:56 AM,88.0,66.9,49,29.97,10.0,Variable,3.5,-,N/A,,Scattered Clouds,0,2013-07-31 14:56:00
8:56 AM,90.0,69.1,50,29.97,10.0,North,5.8,-,N/A,,Scattered Clouds,360,2013-07-31 15:56:00
9:56 AM,95.0,64.9,37,29.96,10.0,North,4.6,-,N/A,,Scattered Clouds,10,2013-07-31 16:56:00
10:56 AM,98.1,60.1,28,29.96,10.0,Calm,Calm,-,N/A,,Scattered Clouds,0,2013-07-31 17:56:00
11:56 AM,102.0,57.0,22,29.93,10.0,NE,6.9,-,N/A,,Scattered Clouds,50,2013-07-31 18:56:00
12:56 PM,102.9,54.0,20,29.91,10.0,Variable,3.5,-,N/A,,Scattered Clouds,0,2013-07-31 19:56:00
1:56 PM,106.0,55.9,19,29.88,10.0,Variable,6.9,-,N/A,,Mostly Cloudy,0,2013-07-31 20:56:00
2:56 PM,106.0,53.1,17,29.86,10.0,SW,4.6,-,N/A,,Mostly Cloudy,230,2013-07-31 21:56:00
3:56 PM,109.0,51.1,15,29.83,10.0,Variable,3.5,-,N/A,,Mostly Cloudy,0,2013-07-31 22:56:00
4:56 PM,108.0,48.9,14,29.81,10.0,Variable,3.5,-,N/A,,Mostly Cloudy,0,2013-07-31 23:56:00
5:56 PM,108.0,46.0,13,29.79,10.0,West,9.2,-,N/A,,Mostly Cloudy,260,2013-08-01 00:56:00
6:56 PM,105.1,39.0,10,29.80,10.0,West,12.7,-,N/A,,Scattered Clouds,260,2013-08-01 01:56:00
7:56 PM,98.1,35.1,11,29.81,10.0,West,16.1,-,N/A,,Scattered Clouds,270,2013-08-01 02:56:00
8:56 PM,95.0,36.0,13,29.82,10.0,West,17.3,-,N/A,,Scattered Clouds,270,2013-08-01 03:56:00
9:56 PM,93.9,32.0,11,29.83,10.0,West,13.8,-,N/A,,Partly Cloudy,270,2013-08-01 04:56:00
10:56 PM,91.0,24.1,9,29.83,10.0,WNW,8.1,-,N/A,,Partly Cloudy,290,2013-08-01 05:56:00
11:56 PM,89.1,27.0,11,29.83,10.0,WNW,6.9,-,N/A,,Unknown,290,2013-08-01 06:56:00